Grass Valley, CA

1:29 PM PST on December 12, 2019 (GMT -0800)
Grass Valley

Weather History for KGOO - October, 2019

Change the Weather History Date:

Wednesday, October 23, 2019

  Actual Average (WUND) Record (WUND)
Temperature  
Mean Temperature 69 °F -  
Max Temperature 78 °F - - (-1)
Min Temperature 60 °F - - (-1)
Cooling Degree Days 4    
Growing Degree Days 19 (Base 50)    
Moisture  
Dew Point 31 °F    
Average Humidity 24    
Maximum Humidity 31    
Minimum Humidity 16    
Precipitation  
Precipitation 0.00 in - - ()
Sea Level Pressure  
Sea Level Pressure 30.10 in    
Wind  
Wind Speed 5 mph ()    
Max Wind Speed 14 mph    
Max Gust Speed 21 mph    
Visibility 10.0 miles    
Events      
Averages and records for this station are not official NWS values.
T = Trace of Precipitation, MM = Missing Value Source: Averaged Metar Reports

Daily Weather History Graph

Daily Weather History Graph

Search for Another Location

Airport or City:

Astronomy

Oct. 23, 2019 Rise Set
Actual Time 7:21 AM PDT 6:14 PM PDT
Civil Twilight 6:54 AM PDT 6:41 PM PDT
Nautical Twilight 6:23 AM PDT 7:12 PM PDT
Astronomical Twilight 5:52 AM PDT 7:43 PM PDT
Moon 1:49 AM PDT (10/23) 4:05 PM PDT (10/23)
Length of Visible Light 11h 46m
Length of Day
10h 52m
Waning Crescent, 25% of the Moon is Illuminated
Oct 23
Waning Crescent
Oct 27
New
Nov 4
First Quarter
Nov 12
Full
Nov 19
Last Quarter

Hourly Weather History & Observations

Time (PDT) Temp. Dew Point Humidity Pressure Visibility Wind Dir Wind Speed Gust Speed Precip Events Conditions
12:10 AM 69.8 °F 26.6 °F 20% 30.13 in 10.0 mi East 11.5 mph - N/A   Clear
12:35 AM 69.8 °F 26.6 °F 20% 30.13 in 10.0 mi East 9.2 mph 15.0 mph N/A   Clear
12:55 AM 69.8 °F 26.6 °F 20% 30.13 in 10.0 mi East 10.4 mph - N/A   Clear
1:10 AM 69.8 °F 28.4 °F 21% 30.13 in 10.0 mi East 8.1 mph - N/A   Clear
1:50 AM 66.2 °F 30.2 °F 26% 30.12 in 10.0 mi Calm Calm - N/A   Clear
2:10 AM 64.4 °F 30.2 °F 28% 30.13 in 10.0 mi West 3.5 mph - N/A   Clear
2:30 AM 64.4 °F 28.4 °F 26% 30.13 in 10.0 mi Calm Calm - N/A   Clear
2:50 AM 62.6 °F 30.2 °F 30% 30.13 in 10.0 mi Calm Calm - N/A   Clear
3:10 AM 64.4 °F 28.4 °F 26% 30.12 in 10.0 mi Calm Calm - N/A   Clear
3:30 AM 64.4 °F 28.4 °F 26% 30.12 in 10.0 mi Calm Calm - N/A   Clear
3:50 AM 64.4 °F 28.4 °F 26% 30.11 in 10.0 mi Calm Calm - N/A   Clear
4:10 AM 64.4 °F 28.4 °F 26% 30.10 in 10.0 mi Calm Calm - N/A   Clear
4:30 AM 62.6 °F 28.4 °F 27% 30.10 in 10.0 mi Calm Calm - N/A   Clear
4:50 AM 62.6 °F 28.4 °F 27% 30.10 in 10.0 mi Calm Calm - N/A   Clear
5:10 AM 62.6 °F 28.4 °F 27% 30.10 in 10.0 mi Calm Calm - N/A   Clear
5:30 AM 64.4 °F 28.4 °F 26% 30.10 in 10.0 mi Calm Calm - N/A   Clear
5:50 AM 62.6 °F 28.4 °F 27% 30.09 in 10.0 mi Calm Calm - N/A   Clear
6:10 AM 60.8 °F 30.2 °F 31% 30.09 in 10.0 mi Calm Calm - N/A   Clear
6:30 AM 62.6 °F 28.4 °F 27% 30.09 in 10.0 mi Calm Calm - N/A   Clear
6:55 AM 64.4 °F 28.4 °F 26% 30.09 in 10.0 mi ESE 5.8 mph - N/A   Clear
7:15 AM 62.6 °F 30.2 °F 30% 30.10 in 10.0 mi East 5.8 mph - N/A   Clear
7:55 AM 64.4 °F 30.2 °F 28% 30.09 in 10.0 mi ESE 5.8 mph - N/A   Clear
8:15 AM 64.4 °F 32.0 °F 30% 30.09 in 10.0 mi East 5.8 mph 11.5 mph N/A   Clear
8:35 AM 66.2 °F 32.0 °F 28% 30.09 in 10.0 mi East 8.1 mph - N/A   Clear
8:55 AM 68.0 °F 33.8 °F 28% 30.11 in 10.0 mi East 8.1 mph - N/A   Clear
9:15 AM 68.0 °F 33.8 °F 28% 30.10 in 10.0 mi East 9.2 mph - N/A   Clear
9:30 AM 68.0 °F 33.8 °F 28% 30.11 in 10.0 mi East 10.4 mph - N/A   Clear
9:55 AM 69.8 °F 33.8 °F 27% 30.11 in 10.0 mi Variable 6.9 mph 13.8 mph N/A   Clear
10:15 AM 71.6 °F 35.6 °F 27% 30.11 in 10.0 mi East 6.9 mph - N/A   Clear
10:35 AM 73.4 °F 33.8 °F 23% 30.12 in 10.0 mi East 6.9 mph - N/A   Clear
10:50 AM 73.4 °F 33.8 °F 23% 30.12 in 10.0 mi East 5.8 mph - N/A   Clear
11:10 AM 75.2 °F 35.6 °F 24% 30.11 in 10.0 mi East 8.1 mph - N/A   Clear
11:30 AM 75.2 °F 35.6 °F 24% 30.11 in 10.0 mi ENE 8.1 mph - N/A   Clear
11:50 AM 75.2 °F 35.6 °F 24% 30.11 in 10.0 mi East 6.9 mph 12.7 mph N/A   Clear
12:10 PM 77.0 °F 35.6 °F 22% 30.11 in 10.0 mi East 5.8 mph - N/A   Clear
12:30 PM 77.0 °F 33.8 °F 21% 30.11 in 10.0 mi East 8.1 mph - N/A   Clear
12:50 PM 77.0 °F 33.8 °F 21% 30.10 in 10.0 mi ENE 9.2 mph - N/A   Clear
1:10 PM 78.8 °F 33.8 °F 20% 30.09 in 10.0 mi East 8.1 mph - N/A   Clear
1:30 PM 78.8 °F 33.8 °F 20% 30.08 in 10.0 mi East 8.1 mph - N/A   Clear
1:50 PM 78.8 °F 33.8 °F 20% 30.07 in 10.0 mi ENE 10.4 mph 17.3 mph N/A   Clear
2:10 PM 78.8 °F 33.8 °F 20% 30.07 in 10.0 mi NE 9.2 mph 16.1 mph N/A   Clear
2:35 PM 78.8 °F 33.8 °F 20% 30.06 in 10.0 mi NE 8.1 mph - N/A   Clear
2:55 PM 78.8 °F 32.0 °F 18% 30.06 in 10.0 mi ENE 8.1 mph - N/A   Clear
3:15 PM 78.8 °F 32.0 °F 18% 30.06 in 10.0 mi ENE 13.8 mph - N/A   Clear
3:25 PM 78.8 °F 32.0 °F 18% 30.06 in 10.0 mi East 12.7 mph - N/A   Clear
3:55 PM 78.8 °F 32.0 °F 18% 30.06 in - ENE 8.1 mph 15.0 mph N/A   Unknown
4:10 PM 78.8 °F 30.2 °F 17% 30.06 in 10.0 mi ENE 10.4 mph - N/A   Unknown
4:35 PM 78.8 °F 28.4 °F 16% 30.06 in 10.0 mi ENE 11.5 mph 20.7 mph N/A   Unknown
4:50 PM 77.0 °F 26.6 °F 16% 30.06 in 10.0 mi ENE 8.1 mph 16.1 mph N/A   Unknown